SPACEBEE-19 (46303 NORAD) Tracking and Keplerian Element Data

This shows tracking and keplerian element data for the satellite.

Feedback or suggestion? Click here.




ElementValue
Catalog46303
NameSPACEBEE-19
Epoch Orbit1345
Epoch Day336.89041618
Epoch Year2020
RAAN48.4129
Inclination97.5114
Eccentricity0.0001107
Argument of Perigee67.1542
Mean Anonmoly292.9804
Mean Motion15.11034298
Decay Rate6.166E-05
L11 46303U 20061AH 20336.89041618 .00006166 00000-0 37256-3 0 9991
L22 46303 97.5114 48.4129 0001107 67.1542 292.9804 15.11034298 13458

Live tracking and technical data element details for SPACEBEE-19 (NORAD 46303). SPACEBEE-19 can be tracked NOW for your location showing map with azimuth and elevation plus other details from your city location.

Track the satellite on the map from your city or location and see movement details for azimuth, elevation, latitude, longitude, range, height, and movement on the map or in text.







IsCatalogInMostPopularTable: catalog: 46303, numindb: 21
Update: records affected: 1



GetName: 46303 SPACEBEE-19

Hit Count: updated at: Wed, 02 Dec 2020 18:16:58 GMT